This demonstration page uses our WeatherBlox Daily Observations layout. Learn more.

Left ArrowRight Arrow

41.12389, -100.76542

Hourly Observations for December 12, 2017

Temp ( °F °C ) Dew Point ( °F °C ) Humidity (%) Winds ( mph kmh ) Pressure ( in mb ) Visibility ( mi km ) Precip ( " mm )
12:53 am 00:53 Clear 19 -7.2 16 -8.9 88 88 W 6 9 30.46 1032 10 16 0.00 0.00
1:53 am 01:53 Clear 17 -8.3 15 -9.4 92 92 NW 6 9 30.45 1031 10 16 0.00 0.00
3:53 am 03:53 Clear 18 -7.8 16 -8.9 92 92 WNW 6 9 30.44 1031 10 16 0.00 0.00
4:53 am 04:53 Clear 19 -7.2 16 -8.9 88 88 NW 7 11 30.42 1030 10 16 0.00 0.00
5:53 am 05:53 Clear 16 -8.9 14 -10 92 92 NW 5 7 30.41 1030 10 16 0.00 0.00
6:53 am 06:53 Clear 14 -10 12 -11.1 92 92 NW 5 7 30.42 1030 10 16 0.00 0.00
7:53 am 07:53 Clear 16 -8.9 13 -10.6 88 88 W 5 7 30.41 1030 10 16 0.00 0.00
8:53 am 08:53 Sunny 20 -6.7 17 -8.3 89 89 WNW 5 7 30.39 1029 10 16 0.00 0.00
10:53 am 10:53 Sunny 36 2.2 23 -5 59 59 W 9 15 30.32 1027 10 16 0.00 0.00
11:53 am 11:53 Sunny 42 5.6 22 -5.6 45 45 W 7 11 30.28 1026 10 16 0.00 0.00
12:53 pm 12:53 Sunny 48 8.9 23 -5 37 37 W 7 11 30.23 1024 10 16 0.00 0.00
1:53 pm 13:53 Sunny 54 12.2 22 -5.6 29 29 W 8 13 30.17 1022 10 16 0.00 0.00
2:53 pm 14:53 Sunny 59 15 21 -6.1 23 23 W 9 15 30.11 1020 10 16 0.00 0.00
3:53 pm 15:53 Sunny 59 15 21 -6.1 23 23 WSW 9 15 30.08 1019 10 16 0.00 0.00
4:53 pm 16:53 Sunny 54 12.2 21 -6.1 28 28 WSW 6 9 30.05 1018 10 16 0.00 0.00
5:53 pm 17:53 Clear 42 5.6 20 -6.7 41 41 Calm 30.06 1018 10 16 0.00 0.00
6:53 pm 18:53 Clear 40 4.4 20 -6.7 45 45 W 6 9 30.06 1018 10 16 0.00 0.00
7:53 pm 19:53 Clear 34 1.1 20 -6.7 56 56 NW 6 9 30.04 1017 10 16 0.00 0.00
8:53 pm 20:53 Clear 29 -1.7 20 -6.7 69 69 NNW 6 9 30.01 1016 10 16 0.00 0.00
9:53 pm 21:53 Clear 28 -2.2 19 -7.2 69 69 NW 9 15 29.97 1015 10 16 0.00 0.00
10:53 pm 22:53 Clear 27 -2.8 19 -7.2 72 72 NNW 7 11 29.94 1014 10 16 0.00 0.00
11:53 pm 23:53 Clear 28 -2.2 20 -6.7 72 72 NW 9 15 29.93 1013 10 16 0.00 0.00

Powered by AerisWeather